Time,TemperatureF,DewpointF,PressureIn,WindDirection,WindDirectionDegrees,WindSpeedMPH,WindSpeedGustMPH,Humidity,HourlyPrecipIn,Conditions,Clouds,dailyrainin,SoftwareType,DateUTC
2013-07-22 00:07:00,75.4,75.0,30.01,NNW,328,0.0,0.0,99,0.00,,,0.00,weatherlink.com 1.10,2013-07-22 04:07:00,
2013-07-22 00:22:00,75.5,75.0,30.01,NNW,328,0.0,1.0,99,0.00,,,0.00,weatherlink.com 1.10,2013-07-22 04:22:00,
2013-07-22 00:37:00,75.5,75.0,30.01,WNW,283,0.0,1.0,99,0.00,,,0.00,weatherlink.com 1.10,2013-07-22 04:37:00,
2013-07-22 00:52:00,75.3,75.0,30.00,WNW,283,0.0,2.0,99,0.00,,,0.00,weatherlink.com 1.10,2013-07-22 04:52:00,
2013-07-22 01:07:00,75.2,75.0,29.99,WNW,283,0.0,1.0,99,0.00,,,0.00,weatherlink.com 1.10,2013-07-22 05:07:00,
2013-07-22 01:22:00,75.0,74.0,29.99,West,275,0.0,1.0,98,0.00,,,0.00,weatherlink.com 1.10,2013-07-22 05:22:00,
2013-07-22 01:37:00,74.6,74.0,29.98,West,281,0.0,2.0,98,0.00,,,0.00,weatherlink.com 1.10,2013-07-22 05:37:00,
2013-07-22 01:52:00,74.4,74.0,29.98,WNW,301,0.0,1.0,98,0.00,,,0.00,weatherlink.com 1.10,2013-07-22 05:52:00,
2013-07-22 02:07:00,74.1,74.0,29.98,SW,224,0.0,1.0,98,0.00,,,0.00,weatherlink.com 1.10,2013-07-22 06:07:00,
2013-07-22 02:22:00,73.9,73.0,29.97,SE,129,0.0,1.0,98,0.00,,,0.00,weatherlink.com 1.10,2013-07-22 06:22:00,
2013-07-22 02:37:00,73.7,73.0,29.97,SE,129,0.0,1.0,99,0.00,,,0.00,weatherlink.com 1.10,2013-07-22 06:37:00,
2013-07-22 02:52:00,73.6,73.0,29.96,SE,129,0.0,1.0,99,0.00,,,0.00,weatherlink.com 1.10,2013-07-22 06:52:00,
2013-07-22 03:08:00,73.4,73.0,29.96,SE,129,0.0,0.0,99,0.00,,,0.00,weatherlink.com 1.10,2013-07-22 07:08:00,
2013-07-22 03:23:00,73.3,73.0,29.96,North,3,0.0,1.0,99,0.00,,,0.00,weatherlink.com 1.10,2013-07-22 07:23:00,
2013-07-22 03:38:00,73.2,73.0,29.95,NNE,20,0.0,1.0,99,0.00,,,0.00,weatherlink.com 1.10,2013-07-22 07:38:00,
2013-07-22 03:53:00,73.1,73.0,29.95,NNE,20,0.0,0.0,99,0.00,,,0.00,weatherlink.com 1.10,2013-07-22 07:53:00,
2013-07-22 04:08:00,72.9,73.0,29.95,NNE,20,0.0,1.0,99,0.00,,,0.00,weatherlink.com 1.10,2013-07-22 08:08:00,
2013-07-22 04:23:00,72.9,73.0,29.95,NNE,20,0.0,0.0,99,0.00,,,0.00,weatherlink.com 1.10,2013-07-22 08:23:00,
2013-07-22 04:38:00,72.9,73.0,29.95,NE,38,0.0,0.0,99,0.00,,,0.00,weatherlink.com 1.10,2013-07-22 08:38:00,
2013-07-22 04:53:00,72.9,73.0,29.94,NE,38,0.0,1.0,99,0.00,,,0.00,weatherlink.com 1.10,2013-07-22 08:53:00,
2013-07-22 05:08:00,72.9,73.0,29.95,SW,235,0.0,1.0,99,0.00,,,0.00,weatherlink.com 1.10,2013-07-22 09:08:00,
2013-07-22 05:23:00,73.2,73.0,29.96,West,261,0.0,1.0,99,0.00,,,0.00,weatherlink.com 1.10,2013-07-22 09:23:00,
2013-07-22 05:38:00,73.4,73.0,29.96,SW,230,1.0,2.0,99,0.00,,,0.00,weatherlink.com 1.10,2013-07-22 09:38:00,
2013-07-22 05:53:00,73.5,73.0,29.96,WNW,298,0.0,4.0,99,0.00,,,0.00,weatherlink.com 1.10,2013-07-22 09:53:00,
2013-07-22 06:08:00,73.6,73.0,29.97,WNW,291,1.0,3.0,99,0.00,,,0.00,weatherlink.com 1.10,2013-07-22 10:08:00,
2013-07-22 06:23:00,73.7,73.0,29.97,WSW,249,0.0,1.0,98,0.00,,,0.00,weatherlink.com 1.10,2013-07-22 10:23:00,
2013-07-22 06:38:00,73.7,73.0,29.98,WSW,251,0.0,1.0,99,0.00,,,0.00,weatherlink.com 1.10,2013-07-22 10:38:00,
2013-07-22 06:53:00,73.8,74.0,29.98,WSW,250,0.0,0.0,99,0.00,,,0.00,weatherlink.com 1.10,2013-07-22 10:53:00,
2013-07-22 07:08:00,74.0,74.0,29.98,WSW,251,0.0,0.0,99,0.00,,,0.00,weatherlink.com 1.10,2013-07-22 11:08:00,
2013-07-22 07:23:00,74.2,74.0,29.99,WSW,251,0.0,0.0,99,0.00,,,0.00,weatherlink.com 1.10,2013-07-22 11:23:00,
2013-07-22 07:38:00,74.2,74.0,29.99,WNW,284,0.0,2.0,98,0.00,,,0.00,weatherlink.com 1.10,2013-07-22 11:38:00,
2013-07-22 07:53:00,74.6,74.0,29.99,WNW,283,0.0,2.0,99,0.00,,,0.00,weatherlink.com 1.10,2013-07-22 11:53:00,
2013-07-22 08:08:00,75.0,74.0,30.00,West,269,0.0,2.0,98,0.00,,,0.00,weatherlink.com 1.10,2013-07-22 12:08:00,
2013-07-22 08:23:00,75.5,75.0,30.00,West,268,0.0,1.0,98,0.00,,,0.00,weatherlink.com 1.10,2013-07-22 12:23:00,
2013-07-22 08:38:00,75.6,74.0,30.00,WSW,245,0.0,2.0,96,0.00,,,0.00,weatherlink.com 1.10,2013-07-22 12:38:00,
2013-07-22 08:53:00,76.0,75.0,30.01,NW,322,0.0,3.0,96,0.00,,,0.00,weatherlink.com 1.10,2013-07-22 12:53:00,
2013-07-22 09:08:00,76.4,75.0,30.01,WNW,289,0.0,2.0,96,0.00,,,0.00,weatherlink.com 1.10,2013-07-22 13:08:00,
2013-07-22 09:23:00,77.2,75.0,30.01,WSW,250,0.0,5.0,94,0.00,,,0.00,weatherlink.com 1.10,2013-07-22 13:23:00,
2013-07-22 09:38:00,78.6,76.0,30.01,NW,306,2.0,5.0,92,0.00,,,0.00,weatherlink.com 1.10,2013-07-22 13:38:00,
2013-07-22 09:53:00,79.6,76.0,30.01,WSW,244,1.0,4.0,89,0.00,,,0.00,weatherlink.com 1.10,2013-07-22 13:53:00,
2013-07-22 10:08:00,79.4,76.0,30.01,West,269,2.0,5.0,90,0.00,,,0.00,weatherlink.com 1.10,2013-07-22 14:08:00,
2013-07-22 10:23:00,80.0,77.0,30.01,WNW,284,0.0,4.0,89,0.00,,,0.00,weatherlink.com 1.10,2013-07-22 14:23:00,
2013-07-22 10:38:00,79.9,77.0,30.02,West,264,0.0,2.0,89,0.00,,,0.00,weatherlink.com 1.10,2013-07-22 14:38:00,
2013-07-22 10:53:00,81.6,77.0,30.01,North,1,0.0,3.0,86,0.00,,,0.00,weatherlink.com 1.10,2013-07-22 14:53:00,
2013-07-22 11:08:00,82.5,77.0,30.01,West,272,1.0,3.0,83,0.00,,,0.00,weatherlink.com 1.10,2013-07-22 15:08:00,
2013-07-22 11:23:00,84.2,77.0,30.01,West,266,0.0,3.0,79,0.00,,,0.00,weatherlink.com 1.10,2013-07-22 15:23:00,
2013-07-22 11:38:00,84.2,77.0,30.00,WSW,254,3.0,5.0,80,0.00,,,0.00,weatherlink.com 1.10,2013-07-22 15:38:00,
2013-07-22 11:53:00,85.6,79.0,30.01,NW,305,0.0,4.0,81,0.00,,,0.00,weatherlink.com 1.10,2013-07-22 15:53:00,
2013-07-22 12:08:00,86.3,78.0,30.00,West,279,1.0,6.0,77,0.00,,,0.00,weatherlink.com 1.10,2013-07-22 16:08:00,
2013-07-22 12:23:00,86.7,77.0,29.99,NW,305,0.0,4.0,73,0.00,,,0.00,weatherlink.com 1.10,2013-07-22 16:23:00,
2013-07-22 12:38:00,86.3,77.0,29.99,WSW,246,2.0,5.0,74,0.00,,,0.00,weatherlink.com 1.10,2013-07-22 16:38:00,
2013-07-22 12:53:00,86.9,77.0,29.98,West,271,1.0,6.0,73,0.00,,,0.00,weatherlink.com 1.10,2013-07-22 16:53:00,
2013-07-22 13:09:00,87.0,77.0,29.98,WSW,251,2.0,9.0,71,0.00,,,0.00,weatherlink.com 1.10,2013-07-22 17:09:00,
2013-07-22 13:24:00,87.6,79.0,29.98,West,269,3.0,6.0,76,0.00,,,0.00,weatherlink.com 1.10,2013-07-22 17:24:00,
2013-07-22 13:39:00,87.1,79.0,29.97,WNW,303,1.0,5.0,76,0.00,,,0.00,weatherlink.com 1.10,2013-07-22 17:39:00,
2013-07-22 13:54:00,87.1,77.0,29.97,NNW,347,3.0,7.0,72,0.00,,,0.00,weatherlink.com 1.10,2013-07-22 17:54:00,
2013-07-22 14:39:00,88.4,78.0,29.96,NW,313,0.0,5.0,70,0.00,,,0.00,weatherlink.com 1.10,2013-07-22 18:39:00,
2013-07-22 14:54:00,87.5,78.0,29.96,SSE,155,0.0,7.0,73,0.00,,,0.00,weatherlink.com 1.10,2013-07-22 18:54:00,
2013-07-22 15:24:00,89.0,78.0,29.94,WSW,242,1.0,8.0,69,0.00,,,0.00,weatherlink.com 1.10,2013-07-22 19:24:00,
2013-07-22 15:39:00,89.5,79.0,29.95,SW,232,0.0,5.0,72,0.00,,,0.00,weatherlink.com 1.10,2013-07-22 19:39:00,
2013-07-22 15:54:00,88.9,77.0,29.94,WNW,284,3.0,7.0,67,0.00,,,0.00,weatherlink.com 1.10,2013-07-22 19:54:00,
2013-07-22 16:09:00,89.1,78.0,29.93,WNW,296,0.0,4.0,69,0.00,,,0.00,weatherlink.com 1.10,2013-07-22 20:09:00,
2013-07-22 16:24:00,88.4,78.0,29.93,WNW,287,0.0,6.0,70,0.00,,,0.00,weatherlink.com 1.10,2013-07-22 20:24:00,
2013-07-22 16:39:00,88.9,79.0,29.93,SW,224,0.0,2.0,72,0.00,,,0.00,weatherlink.com 1.10,2013-07-22 20:39:00,
2013-07-22 16:54:00,88.4,78.0,29.93,West,275,0.0,2.0,72,0.00,,,0.00,weatherlink.com 1.10,2013-07-22 20:54:00,
2013-07-22 17:09:00,87.7,78.0,29.93,WNW,293,0.0,4.0,73,0.00,,,0.00,weatherlink.com 1.10,2013-07-22 21:09:00,
2013-07-22 17:24:00,87.2,78.0,29.92,SSW,195,0.0,5.0,73,0.00,,,0.00,weatherlink.com 1.10,2013-07-22 21:24:00,
2013-07-22 17:39:00,87.4,77.0,29.92,SW,234,0.0,5.0,72,0.00,,,0.00,weatherlink.com 1.10,2013-07-22 21:39:00,
2013-07-22 17:54:00,86.6,78.0,29.92,WNW,293,0.0,5.0,76,0.00,,,0.00,weatherlink.com 1.10,2013-07-22 21:54:00,
2013-07-22 18:09:00,85.9,78.0,29.92,West,271,0.0,3.0,77,0.00,,,0.00,weatherlink.com 1.10,2013-07-22 22:09:00,
2013-07-22 18:24:00,86.2,77.0,29.92,WNW,298,1.0,5.0,75,0.00,,,0.00,weatherlink.com 1.10,2013-07-22 22:24:00,
2013-07-22 18:39:00,87.2,78.0,29.91,NNE,32,0.0,1.0,74,0.00,,,0.00,weatherlink.com 1.10,2013-07-22 22:39:00,
2013-07-22 18:54:00,87.1,77.0,29.92,WSW,254,0.0,3.0,71,0.00,,,0.00,weatherlink.com 1.10,2013-07-22 22:54:00,
2013-07-22 19:09:00,86.6,77.0,29.92,SSE,168,0.0,3.0,73,0.00,,,0.00,weatherlink.com 1.10,2013-07-22 23:09:00,
2013-07-22 19:39:00,84.6,76.0,29.92,WNW,285,1.0,2.0,76,0.00,,,0.00,weatherlink.com 1.10,2013-07-22 23:39:00,
2013-07-22 19:54:00,83.5,76.0,29.91,WNW,283,0.0,1.0,77,0.00,,,0.00,weatherlink.com 1.10,2013-07-22 23:54:00,
2013-07-22 20:09:00,82.4,76.0,29.91,WNW,297,0.0,1.0,80,0.00,,,0.00,weatherlink.com 1.10,2013-07-23 00:09:00,
2013-07-22 20:24:00,81.4,75.0,29.91,WNW,297,0.0,0.0,82,0.00,,,0.00,weatherlink.com 1.10,2013-07-23 00:24:00,
2013-07-22 20:39:00,80.3,75.0,29.91,WNW,297,0.0,0.0,84,0.00,,,0.00,weatherlink.com 1.10,2013-07-23 00:39:00,
2013-07-22 20:54:00,79.7,76.0,29.91,North,354,0.0,1.0,88,0.00,,,0.00,weatherlink.com 1.10,2013-07-23 00:54:00,
2013-07-22 21:09:00,79.2,76.0,29.91,North,357,0.0,1.0,90,0.00,,,0.00,weatherlink.com 1.10,2013-07-23 01:09:00,
2013-07-22 21:24:00,79.0,76.0,29.91,North,355,0.0,1.0,91,0.00,,,0.00,weatherlink.com 1.10,2013-07-23 01:24:00,
2013-07-22 21:39:00,78.8,76.0,29.92,NW,322,0.0,1.0,91,0.00,,,0.00,weatherlink.com 1.10,2013-07-23 01:39:00,
2013-07-22 21:54:00,78.9,76.0,29.92,SW,227,0.0,5.0,89,0.00,,,0.00,weatherlink.com 1.10,2013-07-23 01:54:00,
2013-07-22 22:09:00,78.5,75.0,29.92,North,3,0.0,1.0,88,0.00,,,0.00,weatherlink.com 1.10,2013-07-23 02:09:00,
2013-07-22 22:24:00,78.4,75.0,29.93,NE,48,0.0,4.0,89,0.00,,,0.00,weatherlink.com 1.10,2013-07-23 02:24:00,
2013-07-22 22:39:00,77.9,75.0,29.93,NE,53,0.0,1.0,89,0.00,,,0.00,weatherlink.com 1.10,2013-07-23 02:39:00,
2013-07-22 22:54:00,77.7,74.0,29.93,NW,306,0.0,1.0,89,0.00,,,0.00,weatherlink.com 1.10,2013-07-23 02:54:00,
2013-07-22 23:09:00,77.3,74.0,29.94,SW,221,0.0,1.0,90,0.00,,,0.00,weatherlink.com 1.10,2013-07-23 03:09:00,
2013-07-22 23:24:00,77.2,74.0,29.94,WNW,297,0.0,3.0,89,0.00,,,0.00,weatherlink.com 1.10,2013-07-23 03:24:00,
2013-07-22 23:39:00,77.3,74.0,29.94,North,349,0.0,8.0,89,0.00,,,0.00,weatherlink.com 1.10,2013-07-23 03:39:00,
2013-07-22 23:54:00,77.3,74.0,29.94,WSW,255,0.0,1.0,89,0.00,,,0.00,weatherlink.com 1.10,2013-07-23 03:54:00,